Regional Weather Roundup
Issued by NWS

Home | Current Version | Previous Version | Text Only | Print | Product List | Glossary Off
Versions: 1 2 3 4 5 6 7 8 9 10 11 12 13 14 15 16 17 18 19 20 21 22 23 24 25 26 27 28 29 30 31 32 33 34 35 36 37 38 39 40 41 42 43 44 45 46 47 48 49 50

000
ASUS45 KPSR 232100
RWRAZ

PRELIMINARY ARIZONA REGIONAL HOURLY WEATHER ROUNDUP
NATIONAL WEATHER SERVICE PHOENIX AZ
200 PM MST SUN NOV 23 2014

NOTE: FAIR INDICATES FEW OR NO CLOUDS BELOW 12,000 FEET WITH NO
SIGNIFICANT WEATHER AND/OR OBSTRUCTIONS TO VISIBILITY.

AZZ001>003-036-232200-
NORTHWEST ARIZONA

CITY           SKY/WX    TMP DP  RH WIND       PRES   REMARKS
KINGMAN        SUNNY     57   5  12 N20G28    30.19F
$$

AZZ004>008-015-016-018-232200-
NORTH CENTRAL ARIZONA

CITY           SKY/WX    TMP DP  RH WIND       PRES   REMARKS
GRAND CANYON   SUNNY     42  -3  15 NW10G24   30.15S
PRESCOTT       SUNNY     51  -4  10 N26G36    30.13F
FLAGSTAFF      SUNNY     44 -10  10 N10G21    30.11S
PAYSON         SUNNY     54 -11   6 N12G24    30.10F
$$

AZZ009>014-017-232200-
NORTHEAST ARIZONA

CITY           SKY/WX    TMP DP  RH WIND       PRES   REMARKS
WINSLOW        NOT AVBL
SAINT JOHNS    SUNNY     46   2  16 NW24G37   30.04R
SHOW LOW       SUNNY     41   0  17 NW22G32   30.12R
$$

AZZ023-232200-
GREATER PHOENIX AREA

CITY           SKY/WX    TMP DP  RH WIND       PRES   REMARKS
PHOENIX        MOSUNNY   73  12   9 NW15G21   30.00F
BUCKEYE          N/A     73   1   6 N14G26    30.04F
GLENDALE       MOSUNNY   73   7   7 NW14      30.03F
LUKE AFB       SUNNY     74   6   7 N14       30.01F HAZE
DEER VALLEY    SUNNY     71   9   9 NW15      30.00F
SCOTTSDALE     SUNNY     71  19  14 VRB6      30.02F
MESA-FALCON    MOSUNNY   70  23  17 SW6       30.01F
MESA-GATEWAY   SUNNY     68  28  22 W8        30.04F
$$

AZZ027-028-232200-
SOUTHWEST MARICOPA COUNTY AND PINAL COUNTY

CITY           SKY/WX    TMP DP  RH WIND       PRES   REMARKS
CASA GRANDE    SUNNY     70  21  16 N14G20    30.03F
$$

AZZ503-504-507>509-232200-
SOUTHEAST ARIZONA

CITY           SKY/WX    TMP DP  RH WIND       PRES   REMARKS
TUCSON         SUNNY     66  28  24 NW15G23   30.04F
DAVIS-MONTHAN  SUNNY     64  29  26 NW16      30.02F
RYAN FIELD       N/A    N/A N/A N/A NW17G24   30.04
NOGALES        SUNNY     65  33  30 NW14G20   30.03F
SIERRA VISTA   SUNNY     61  28  28 NW22G30   30.02F
SAFFORD        SUNNY     65  21  18 NW24G36   29.94F
$$

AZZ020-021-025-026-031-232200-
SOUTHWEST ARIZONA

CITY           SKY/WX    TMP DP  RH WIND       PRES   REMARKS
YUMA           PTSUNNY   76   5   6 N21G30    30.08F
$$

CAZ031-033-041-043-047-048-061-232200-
SOUTHERN CALIFORNIA

CITY           SKY/WX    TMP DP  RH WIND       PRES   REMARKS
DOWNTOWN L.A.  SUNNY     78  40  25 CALM      30.06F
L.A. AIRPORT   MOSUNNY   74  38  27 S12       30.07F
SAN DIEGO      PTSUNNY   70  53  54 NW9       30.07F
BURBANK        SUNNY     77   2   5 E15       30.10F
ONTARIO        MOSUNNY   79  14   8 N10G18    30.07F
RIVERSIDE      SUNNY     75   6   7 N17G35    30.08F
PALM SPRINGS   SUNNY     77   3   5 NE12G21   30.17F
EL CENTRO NAS  MOSUNNY   76  19  11 N17       30.12F
IMPERIAL       PTSUNNY   76  20  12 N17       30.10F
BLYTHE         MOSUNNY   73   7   7 N26G37    30.12S HAZE
$$

NVZ020-UTZ003-232200-
SOUTHERN NEVADA-UTAH

CITY           SKY/WX    TMP DP  RH WIND       PRES   REMARKS
LAS VEGAS      NOT AVBL
SALT LAKE CITY MOSUNNY   39  22  50 NW15G23   30.22F WCI  31
$$

NMZ009-TXZ055-232200-
NEW MEXICO-WEST TEXAS

CITY           SKY/WX    TMP DP  RH WIND       PRES   REMARKS
ALBUQUERQUE    MOSUNNY   45  14  28 W35G46    29.87S
EL PASO        MOSUNNY   64  25  22 W38G51    29.81S
$$


........................KEY........................
SKY/WX - SKY CONDITION/WEATHER
TMP    - TEMPERATURE IN FAHRENHEIT
DP     - DEW POINT IN FAHRENHEIT
RH     - RELATIVE HUMIDITY IN PERCENT
WIND   - DIRECTION AND SPEED IN MILES PER HOUR (MPH)
VRB    - VARIABLE WIND DIRECTION
PRES   - MEAN SEA LEVEL PRESSURE IN INCHES OF MERCURY
         F - FALLING PRESSURE   R - RISING PRESSURE
         S - STEADY PRESSURE
VSB    - VISIBILITY IN MILES
HX     - HEAT INDEX IN FAHRENHEIT
WCI    - WIND CHILL INDEX IN FAHRENHEIT
TC     - TEMPERATURE IN CELSIUS WHICH IS ALSO KNOWN AS
         TEMPERATURE IN CENTIGRADE
AFB    - AIR FORCE BASE
         LUKE AFB IS LUKE AIR FORCE BASE
         DAVIS-MONTHAN IS DAVIS-MONTHAN AIR FORCE BASE
NAS    - NAVAL AIR STATION
         EL CENTRO NAS IS EL CENTRO NAVAL AIR STATION
N/A    - NOT AVAILABLE



USA.gov is the U.S. government's official web portal to all federal, state and local government web resources and services.